TimeMST,TemperatureF,Dew PointF,Humidity,Sea Level PressureIn,VisibilityMPH,Wind Direction,Wind SpeedMPH,Gust SpeedMPH,PrecipitationIn,Events,Conditions,WindDirDegrees,DateUTC
12:52 AM,-13.0,-18.0,78,30.61,10.0,SSE,6.9,-,N/A,,Clear,150,2013-01-21 07:52:00
1:30 AM,-9.4,-14.8,77,30.28,10.0,SE,4.6,-,N/A,,Partly Cloudy,140,2013-01-21 08:30:00
1:52 AM,-8.0,-11.9,83,30.58,10.0,Calm,Calm,-,N/A,,Partly Cloudy,0,2013-01-21 08:52:00
2:52 AM,-9.9,-15.0,78,30.57,10.0,NNW,4.6,-,N/A,,Clear,330,2013-01-21 09:52:00
3:52 AM,-9.0,-14.1,79,30.57,9.0,North,3.5,-,N/A,,Clear,350,2013-01-21 10:52:00
4:52 AM,-11.9,-17.0,78,30.64,10.0,North,5.8,-,N/A,,Clear,360,2013-01-21 11:52:00
5:52 AM,-17.0,-22.0,78,30.72,10.0,SSW,3.5,-,N/A,,Scattered Clouds,210,2013-01-21 12:52:00
6:02 AM,-16.6,-20.2,84,30.31,10.0,SSW,3.5,-,N/A,,Mostly Cloudy,200,2013-01-21 13:02:00
6:32 AM,-16.6,-20.2,84,30.32,1.8,Calm,Calm,-,N/A,,Overcast,0,2013-01-21 13:32:00
6:47 AM,-14.8,-18.4,84,30.32,3.0,Calm,Calm,-,N/A,,Overcast,0,2013-01-21 13:47:00
6:52 AM,-15.0,-18.9,82,30.75,4.0,WSW,3.5,-,N/A,,Overcast,240,2013-01-21 13:52:00
6:59 AM,-14.8,-20.2,77,30.33,1.2,WSW,4.6,-,N/A,,Haze,250,2013-01-21 13:59:00
7:06 AM,-14.8,-18.4,84,30.33,0.2,WSW,3.5,-,N/A,Fog,Light Freezing Fog,250,2013-01-21 14:06:00
7:52 AM,-9.9,-15.0,78,30.80,0.2,Calm,Calm,-,N/A,,Haze,0,2013-01-21 14:52:00
8:24 AM,-2.2,-7.6,78,30.35,2.0,Calm,Calm,-,N/A,,Haze,0,2013-01-21 15:24:00
8:32 AM,-0.4,-7.6,72,30.35,9.0,Calm,Calm,-,N/A,,Mostly Cloudy,0,2013-01-21 15:32:00
8:40 AM,-0.4,-5.8,78,30.35,10.0,Calm,Calm,-,N/A,,Scattered Clouds,0,2013-01-21 15:40:00
8:52 AM,-0.0,-5.1,79,30.75,10.0,West,3.5,-,N/A,,Partly Cloudy,260,2013-01-21 15:52:00
9:06 AM,-0.4,-2.2,92,30.35,10.0,Calm,Calm,-,N/A,,Mostly Cloudy,0,2013-01-21 16:06:00
9:18 AM,1.4,-0.4,92,30.36,10.0,Calm,Calm,-,N/A,,Scattered Clouds,0,2013-01-21 16:18:00
9:52 AM,6.1,1.9,83,30.75,10.0,Calm,Calm,-,N/A,,Clear,0,2013-01-21 16:52:00
10:52 AM,10.9,1.9,67,30.71,10.0,West,3.5,-,N/A,,Clear,260,2013-01-21 17:52:00
11:52 AM,17.1,6.1,62,30.63,10.0,West,4.6,-,N/A,,Clear,260,2013-01-21 18:52:00
12:52 PM,21.9,7.0,53,30.59,10.0,NW,3.5,-,N/A,,Clear,320,2013-01-21 19:52:00
1:52 PM,26.1,9.0,49,30.53,10.0,West,5.8,-,N/A,,Clear,280,2013-01-21 20:52:00
2:52 PM,28.0,9.0,45,30.52,10.0,West,5.8,-,N/A,,Clear,260,2013-01-21 21:52:00
3:52 PM,27.0,10.0,49,30.52,10.0,Calm,Calm,-,N/A,,Clear,0,2013-01-21 22:52:00
4:52 PM,26.1,10.0,51,30.53,10.0,NE,6.9,-,N/A,,Clear,50,2013-01-21 23:52:00
5:52 PM,14.0,6.1,71,30.66,10.0,ENE,6.9,-,N/A,,Clear,60,2013-01-22 00:52:00
6:52 PM,6.1,1.9,83,30.71,10.0,West,5.8,-,N/A,,Clear,280,2013-01-22 01:52:00
7:52 PM,1.0,-2.0,87,30.71,10.0,WSW,4.6,-,N/A,,Clear,250,2013-01-22 02:52:00
8:52 PM,3.0,-0.9,84,30.63,10.0,West,6.9,-,N/A,,Clear,270,2013-01-22 03:52:00
9:52 PM,-2.0,-7.1,79,30.64,10.0,WNW,3.5,-,N/A,,Clear,290,2013-01-22 04:52:00
10:52 PM,-6.0,-9.0,87,30.64,10.0,Calm,Calm,-,N/A,,Clear,0,2013-01-22 05:52:00
11:52 PM,-4.0,-9.0,79,30.61,10.0,Calm,Calm,-,N/A,,Clear,0,2013-01-22 06:52:00